Back to catalog

FENGYUN 1C DEB

AliveSSO
NORAD 30822·DEBRIS·🇨🇳 China

Launched May 10, 1999 from Taiyuan Satellite Launch Center

Loading…

Next Passes (next 24 hours)

TLE

FreshSource: Space-Track

Epoch: Sep 14, 2026, 12:56 UTC

1 30822U 99025AVG 26257.53909839  .00000361  00000-0  21684-3 0  9992
2 30822  98.7116 282.8930 0073134 221.1787 293.4722 14.11642080  5884

Track FENGYUN 1C DEB in real time with AllMySat

Download on the App Store